カタログに戻る

CZ-6A DEB

運用中SSO
NORAD 54497·DEBRIS·🇨🇳 China

打ち上げ Nov 11, 2022 から Taiyuan Satellite Launch Center

Loading…

次のパス (今後24時間)

TLE

最新Source: Space-Track

元期: Sep 14, 2026, 11:18 UTC

1 54497U 22151HZ  26257.47085900  .00000617  00000-0  35416-3 0  9991
2 54497  98.8436 257.6269 0049941  74.9756 285.6936 14.12396840197128

AllMySatでCZ-6A DEBをリアルタイム追跡

Download on the App Store